Flag for U.S.A. Weather past 2 weeks in Kilgore, Texas, U.S.A.

Now
40 °F

Sunny.


Feels Like: 32 °F
Forecast: 30 / 42 °F
Wind: 15 mph from North

Location: Gregg County Airport

Current Time: Mar 5, 2015 at 2:21:09 PM

Latest Report: Mar 5, 2015 at 1:53 PM


Visibility: 10 mi

Pressure: 30.53 "Hg

Humidity: 47%

Dew point: 21 °F

Location of KilgoreLocation

Historic Weather in Kilgore — Graph

°F

Kilgore temperature yesterday

Maximum temperature yesterday: 66 °F (at 12:53 AM)
Minimum temperature yesterday: 37 °F (at 11:52 PM)
Average temperature yesterday: 55 °F

Past Weeks' High & Low Weather Summary

 TemperatureHumidityPressure
High73 °F (Feb 21, 12:53 PM)97% (Mar 3, 3:53 AM)30.57 "Hg (Mar 3, 3:53 AM)
Low28 °F (Feb 23, 11:53 PM)26% (Feb 19, 12:53 PM)29.75 "Hg (Feb 21, 3:53 AM)
Average43 °F76%30.19 "Hg
* Reported Feb 18 12:53 PM — Mar 5 12:53 PM, Kilgore, Weather by CustomWeather, © 2015

Note: Actual official high and low records may vary slightly from our data, if they occured in-between our weather recording intervals... More about our weather records

Advertising

Kilgore weather history for previous 24 hours

 ConditionsComfort  
Time TempWeatherWind HumidityBarometerVisibility
12:53 PM
Thu, Mar 5
39 °FSunny.12 mph48%30.55 "Hg10 mi
11:53 AM37 °FSunny.16 mph52%30.57 "Hg10 mi
10:53 AM35 °FPassing clouds.9 mph64%30.57 "Hg10 mi
9:57 AM32 °FPartly sunny.16 mph66%30.55 "Hg10 mi
8:53 AM30 °FOvercast.14 mph75%30.54 "Hg10 mi
7:53 AM30 °FOvercast.6 mph85%30.50 "Hg10 mi
6:53 AM31 °FOvercast.14 mph79%30.45 "Hg10 mi
5:53 AM31 °FLight snow. Ice fog.9 mph89%30.40 "Hg2 mi
4:53 AM32 °FLight snow. Ice fog.8 mph85%30.32 "Hg5 mi
4:00 AM33 °FLight snow. Fog.15 mph88%30.33 "Hg2 mi
2:53 AM33 °FRain. Fog.15 mph88%30.29 "Hg5 mi
2:03 AM34 °FLight rain. Overcast.13 mph88%30.25 "Hg8 mi
1:53 AM34 °FLight rain. Overcast.8 mph92%30.25 "Hg8 mi
12:53 AM36 °FLight rain. Mostly cloudy.13 mph85%30.22 "Hg8 mi
11:52 PM
Wed, Mar 4
37 °FLight rain. Overcast.14 mph89%30.21 "Hg8 mi
10:53 PM39 °FLight rain. Mostly cloudy.13 mph86%30.13 "Hg10 mi
9:53 PM40 °FLight rain. Low clouds.10 mph86%30.12 "Hg9 mi
8:53 PM42 °FLight rain. Fog.18 mph85%30.05 "Hg5 mi
8:00 PM44 °FRain. Mostly cloudy.9 mph85%30.03 "Hg7 mi
6:53 PM45 °FHeavy rain. Fog.10 mph90%29.96 "Hg5 mi
5:53 PM45 °FLight rain. Fog.12 mph90%29.92 "Hg4 mi
4:53 PM47 °FLight rain. Fog.17 mph90%29.91 "Hg4 mi
3:53 PM49 °FRain. Fog.14 mph90%29.87 "Hg5 mi
2:53 PM54 °FLight rain. Low clouds.12 mph90%29.86 "Hg8 mi
Weather by CustomWeather, © 2015

See weather overviewHow to use our weather pages